EDT,Max TemperatureF,Mean TemperatureF,Min TemperatureF,Max Dew PointF,MeanDew PointF,Min DewpointF,Max Humidity, Mean Humidity, Min Humidity, Max Sea Level PressureIn, Mean Sea Level PressureIn, Min Sea Level PressureIn, Max VisibilityMiles, Mean VisibilityMiles, Min VisibilityMiles, Max Wind SpeedMPH, Mean Wind SpeedMPH, Max Gust SpeedMPH,PrecipitationIn, CloudCover, Events, WindDirDegrees
2012-9-1,84,74,64,59,55,51,75,53,37,30.12,30.08,30.03,10,10,10,9,5,,0.00,7,,52
2012-9-2,82,74,66,64,59,53,88,64,39,30.05,30.01,29.96,10,10,10,14,6,20,0.00,6,,84
2012-9-3,87,75,63,68,63,56,84,67,49,29.99,29.94,29.88,10,10,8,8,4,,0.00,2,,98
2012-9-4,81,74,68,70,68,66,100,87,62,29.91,29.88,29.84,10,6,1,18,5,23,0.31,6,Rain-Thunderstorm,351
2012-9-5,78,70,62,70,66,63,100,90,69,29.90,29.86,29.78,10,5,0,13,2,18,0.02,5,Fog,176
2012-9-6,82,72,64,66,61,57,90,69,44,29.92,29.87,29.81,10,10,10,8,5,,0.00,4,,306
2012-9-7,79,70,60,65,60,56,94,79,48,29.91,29.80,29.66,10,10,4,16,6,23,0.16,6,Rain-Thunderstorm,282
2012-9-8,71,62,55,59,53,47,97,80,46,29.85,29.71,29.63,10,9,4,23,11,33,0.48,7,Rain,318
2012-9-9,70,60,50,51,47,42,93,65,40,30.10,29.97,29.84,10,10,10,16,4,20,0.00,2,,323
2012-9-10,71,60,48,49,45,41,90,63,36,30.23,30.18,30.11,10,10,10,7,2,,0.00,1,,303
2012-9-11,79,64,50,52,50,47,93,62,39,30.22,30.18,30.13,10,10,10,14,4,20,0.00,2,,203
2012-9-12,82,68,55,56,52,49,84,57,31,30.22,30.19,30.15,10,10,10,14,5,20,0.00,2,,197
2012-9-13,82,69,57,60,57,53,90,69,38,30.25,30.21,30.16,10,10,10,14,4,21,0.00,5,,281
2012-9-14,70,61,53,58,52,43,100,82,39,30.27,30.24,30.21,10,8,2,16,7,22,0.43,6,Rain,339
2012-9-15,70,59,48,50,46,43,86,64,39,30.34,30.26,30.17,10,10,10,8,4,,0.00,1,,323
2012-9-16,77,64,52,52,48,44,86,60,33,30.16,30.08,30.02,10,10,10,10,3,20,0.00,3,,224
2012-9-17,75,64,53,61,51,44,90,61,38,30.02,29.87,29.70,10,10,2,12,5,,0.08,4,Rain,192
2012-9-18,63,54,46,63,50,34,100,80,50,29.96,29.70,29.60,10,9,5,17,10,28,0.00,6,Rain,304
2012-9-19,64,52,41,39,36,34,89,57,33,30.10,30.04,29.97,10,10,10,14,7,22,0.00,3,,217
2012-9-20,68,60,51,52,43,36,77,56,42,29.97,29.89,29.83,10,10,10,20,12,29,0.00,6,Thunderstorm,209
2012-9-21,69,58,48,50,43,35,93,64,31,29.93,29.87,29.78,10,10,7,14,4,21,0.15,5,Rain,254
2012-9-22,57,52,45,50,43,38,96,73,49,30.06,29.85,29.71,10,10,7,14,7,22,0.03,5,Rain,271
2012-9-23,55,49,43,41,38,34,89,70,45,30.21,30.15,30.07,10,10,10,17,9,26,0.00,6,Rain,289
2012-9-24,62,49,37,39,35,32,93,59,35,30.20,30.08,29.91,10,10,10,18,7,29,0.00,4,,227
2012-9-25,68,58,48,54,44,33,93,59,45,29.96,29.90,29.86,10,10,8,14,7,18,0.00,4,,208
2012-9-26,68,59,51,61,56,44,100,89,52,30.15,29.96,29.88,10,4,0,10,4,,0.01,7,Fog,338
2012-9-27,66,56,46,44,40,37,90,61,38,30.25,30.20,30.16,10,10,10,12,4,,0.00,5,,77
2012-9-28,68,57,48,48,45,42,93,67,42,30.18,30.13,30.08,10,10,10,10,3,18,0.00,5,,337
2012-9-29,70,57,45,48,43,38,93,67,32,30.09,30.01,29.94,10,10,8,10,3,,0.00,3,,345
2012-9-30,63,54,46,48,45,41,100,77,46,29.98,29.94,29.92,10,10,7,12,4,,0.00,4,,18